O3B FM6

Last updated on Wed Jun 24 2026 00:03:25 GMT+0000 (Coordinated Universal Time)

1 40081U 14038C 26173.67585320 -.00000022 00000+0 00000+0 0 9997 2 40081 0.0469 350.3744 0002638 99.9682 269.6859 5.00115792218109
UTC large
Height (km)
Speed (km/s)
/
Latitude / Longitude
Inclination (degrees)
Orbital Period (minutes)
Azimuth
Elevation
Range (km)
Doppler Factor

Next 0 passes for location: London (51.5072 / 0.1276)

No passes found over London.
O3B FM6